Theta_e
321 321 321 321 322 322 323 323 324 324 324 325 325 325 326 326 325 311 304 312 316 330 322 309 308 306 304 303 304 300 290 288 291 292 293 295 294 296 296 295 296 300 297 297 299
320 319 320 320 320 321 322 322 322 323 323 324 324 324 325 325 312 307 319 333 332 331 309 305 302 303 299 301 301 297 289 291 296 295 293 296 296 295 294 294 294 297 297 298 298
319 318 318 319 319 320 321 321 321 321 322 323 323 324 324 322 305 305 330 334 332 327 309 307 305 303 298 299 299 297 292 296 298 297 297 296 294 297 294 293 296 296 297 297 295
318 318 317 317 318 319 320 320 320 320 321 322 323 324 323 313 290 307 329 331 330 312 307 304 302 299 297 296 300 294 298 298 300 300 297 295 296 295 295 300 299 299 297 296 295
318 317 316 316 317 318 319 319 320 320 320 321 322 323 314 301 302 314 326 325 315 309 304 302 300 299 296 297 297 296 297 299 300 299 297 298 297 295 295 298 299 299 297 297 297
318 317 316 316 316 317 318 319 319 320 320 320 321 323 303 292 306 312 309 310 307 304 302 302 300 301 298 297 296 295 297 297 297 298 297 297 295 296 300 297 298 298 296 296 298
318 317 316 316 316 317 317 318 318 319 319 320 321 319 305 298 306 307 306 304 304 303 300 301 302 299 297 296 298 296 294 294 296 296 295 296 293 293 301 295 297 297 296 296 297
318 317 316 317 317 318 318 319 319 319 319 320 322 312 296 308 304 304 304 303 303 303 303 303 302 299 297 298 295 291 290 287 292 294 295 295 290 295 298 296 297 296 296 295 297
318 317 317 317 317 317 318 319 319 319 320 322 311 303 297 311 303 305 304 302 302 303 302 305 301 296 296 290 287 286 284 285 290 295 294 292 290 296 295 294 295 296 294 296 297
318 317 317 317 317 318 319 319 317 316 317 318 312 298 300 300 305 303 302 303 300 300 299 298 294 290 290 287 282 284 283 286 287 291 290 289 290 296 296 293 293 294 293 293 296
319 318 318 317 318 319 315 305 297 296 302 296 297 296 300 304 305 301 303 302 301 296 290 293 288 286 291 291 289 286 285 285 289 292 290 290 291 294 298 294 292 295 297 296 294
319 319 318 318 318 318 307 301 299 299 292 298 298 299 302 303 298 301 303 297 295 290 291 289 286 292 292 291 291 289 287 287 291 293 289 290 290 293 295 296 297 297 296 297 299
319 318 318 318 318 310 303 300 305 304 291 294 297 295 296 302 297 297 300 295 291 289 290 289 291 294 292 289 289 288 287 288 288 289 288 286 287 288 292 295 297 297 298 299 299
319 318 317 317 310 306 301 304 306 303 283 288 293 295 298 299 292 298 298 296 291 290 289 289 294 292 290 289 291 287 291 290 288 284 283 286 282 285 289 291 293 295 297 298 299
318 318 318 316 306 305 305 305 304 295 278 291 292 301 299 292 292 293 295 294 289 289 289 288 288 288 288 291 291 290 289 288 285 283 282 282 281 284 289 288 291 295 296 298 299
318 318 317 312 308 309 307 304 300 285 280 288 292 291 291 293 292 292 292 294 292 288 289 289 290 290 290 290 290 289 287 286 283 282 279 284 283 283 285 289 290 294 296 297 298
317 318 314 314 308 309 306 301 294 285 292 288 288 290 289 288 289 289 288 287 286 282 281 284 286 288 291 287 287 287 285 278 276 275 278 284 281 288 288 291 292 293 294 295 297
314 317 314 316 312 309 308 299 287 293 291 293 291 289 287 289 289 288 285 283 286 283 282 281 282 287 289 289 286 285 287 279 274 278 282 281 279 286 291 293 293 293 295 293 292
314 315 312 314 311 311 302 290 291 294 297 296 296 289 286 290 289 287 284 284 287 288 284 281 283 287 288 288 290 283 282 289 280 269 273 283 285 289 288 290 291 291 290 290 290
307 310 310 313 313 308 296 294 295 299 300 299 293 295 290 289 291 289 287 288 287 289 293 288 283 288 286 286 285 286 287 280 280 272 270 281 279 285 287 291 289 289 289 288 289
306 300 306 312 310 300 290 293 296 300 301 297 295 294 294 293 293 290 291 291 291 290 292 290 287 286 284 283 286 283 283 283 283 282 280 278 282 288 286 287 287 288 289 289 289
303 292 308 311 296 296 293 295 297 296 299 299 295 295 294 294 292 294 293 295 296 292 289 292 288 283 286 288 286 286 286 287 282 280 280 283 283 295 294 294 292 293 291 289 290
296 298 307 307 290 292 295 295 297 295 295 295 294 295 297 293 289 293 294 299 299 296 292 292 287 283 283 286 288 286 288 288 287 285 282 280 282 295 295 294 295 291 290 292 292
293 288 297 299 299 294 292 292 292 296 296 296 295 296 293 291 293 291 291 295 296 295 298 297 290 286 282 285 288 284 285 286 286 282 282 283 284 289 292 293 295 296 296 296 296
290 287 292 287 291 292 293 292 290 289 294 295 293 293 291 288 289 289 292 291 293 296 294 293 285 287 288 290 290 289 288 289 287 287 283 285 286 290 293 294 296 297 296 296 295
286 285 289 286 287 288 291 288 288 290 291 290 289 288 288 285 287 283 284 285 285 288 287 289 284 286 285 288 287 285 287 288 288 289 288 289 288 295 296 297 296 297 297 297 297
288 290 288 283 282 280 282 285 286 286 288 290 285 282 282 285 284 285 285 286 286 284 283 284 283 282 279 285 284 281 285 286 288 289 289 284 290 291 290 291 292 290 289 289 289
Wind_Speed
15 16 16 16 15 15 15 15 14 13 13 13 12 12 11 9 7 1 6 9 6 13 5 6 1 2 2 2 2 3 3 3 6 3 4 1 3 1 2 2 3 7 4 2 8
14 15 15 16 16 15 16 16 16 15 14 14 14 13 12 9 2 8 8 8 11 13 6 7 4 4 0 2 1 4 4 9 6 2 4 3 6 4 2 4 5 5 0 4 11
12 13 14 15 16 16 16 16 15 15 15 15 15 14 11 6 4 8 6 10 12 10 5 6 4 6 2 3 4 5 7 6 6 3 4 4 3 6 6 8 10 11 8 8 7
9 12 14 14 15 15 16 16 15 15 16 15 15 14 14 1 6 1 7 8 9 5 6 5 4 5 5 6 6 4 10 7 6 3 3 4 1 5 10 18 7 13 5 10 13
5 8 11 13 16 16 17 17 17 16 14 14 14 13 4 1 11 5 7 6 4 5 7 7 6 6 6 5 2 6 6 6 7 8 5 5 10 7 12 14 10 9 8 14 16
7 7 9 12 14 16 18 18 19 17 16 14 11 7 1 5 2 9 9 7 5 5 5 7 8 7 4 5 7 3 4 7 6 9 5 6 8 5 19 4 12 10 13 12 18
8 8 10 12 14 16 18 19 20 18 17 15 9 2 2 15 1 7 9 6 4 4 3 3 3 4 1 4 3 3 8 8 9 6 9 6 10 13 26 1 10 12 12 12 20
8 9 10 12 14 17 19 21 20 19 18 12 6 3 8 1 4 5 2 1 1 2 2 2 2 1 2 4 7 3 2 6 1 7 4 9 16 12 14 7 16 13 12 10 15
9 10 12 13 15 17 21 23 22 16 7 5 4 5 9 2 2 5 6 3 3 3 3 3 3 4 2 3 5 2 7 8 13 11 5 7 12 12 5 9 13 13 12 12 14
9 10 12 14 16 19 22 22 7 3 2 2 2 2 4 6 3 4 4 6 3 4 3 3 4 2 1 5 10 9 7 6 9 4 4 6 16 16 10 7 12 13 11 11 15
9 9 11 13 16 20 13 5 5 2 2 9 8 6 2 3 2 4 4 7 5 3 6 3 5 11 24 18 4 3 7 7 10 10 5 13 16 19 23 9 12 17 21 16 16
8 9 10 13 15 20 3 5 2 2 9 8 11 9 7 6 5 6 7 8 6 8 6 2 12 21 6 6 11 14 16 20 15 17 8 15 23 17 15 21 20 20 20 21 20
9 8 8 11 13 4 2 2 1 3 3 11 7 6 8 10 8 6 11 4 5 7 10 18 10 13 12 7 8 16 16 18 18 6 6 10 17 12 14 18 20 19 20 19 21
9 8 6 9 2 3 2 2 1 2 2 9 5 4 1 6 4 2 2 6 3 12 8 10 11 13 8 9 15 21 13 15 10 3 13 2 23 7 9 14 12 17 18 20 21
8 9 6 2 2 2 2 2 3 1 7 6 2 3 2 6 3 5 2 4 3 4 6 10 4 7 13 22 10 18 4 6 3 4 6 5 8 4 9 8 13 15 15 19 18
7 6 6 2 1 4 3 3 1 3 9 6 1 1 3 4 3 1 4 3 2 3 6 11 1 5 9 5 10 3 3 5 5 1 13 13 10 5 8 10 7 10 16 16 19
8 5 8 2 3 3 2 1 2 8 1 5 3 3 3 5 3 5 6 6 7 2 5 3 7 5 6 4 2 4 6 4 5 1 15 9 8 19 5 9 13 14 13 14 15
9 3 6 3 3 3 3 3 14 7 7 1 3 3 5 6 6 4 4 3 7 1 2 3 15 11 6 12 11 11 12 9 9 15 23 6 15 12 11 11 11 12 13 10 11
10 1 3 4 5 2 3 8 8 6 6 3 4 4 5 4 4 3 6 6 8 16 9 5 16 2 4 2 9 3 7 16 2 1 1 11 16 9 6 8 9 11 9 15 10
2 3 4 6 10 3 4 19 8 7 3 2 7 4 5 3 2 3 1 4 4 11 9 4 13 5 3 2 1 8 2 2 1 3 9 16 6 17 10 15 7 9 11 12 8
2 3 2 11 6 4 11 8 6 6 3 5 6 10 10 13 10 9 9 4 3 0 6 4 3 20 0 8 14 0 5 5 3 6 15 18 19 7 5 5 5 6 6 9 8
3 5 4 10 6 4 13 8 6 6 6 10 4 12 15 15 17 17 15 12 8 6 5 6 7 10 18 8 4 4 13 13 13 14 10 16 17 28 19 20 14 19 9 6 8
3 3 3 3 9 12 5 8 7 9 8 5 9 8 14 19 11 14 15 13 15 12 7 8 6 8 6 7 9 12 18 15 14 13 23 23 20 23 25 25 23 11 10 11 10
3 3 3 3 7 9 13 16 16 7 15 10 14 10 16 22 21 14 20 10 9 11 15 7 12 18 21 20 6 7 9 9 16 17 22 22 23 24 29 29 35 22 18 16 15
3 4 3 4 9 14 13 8 17 20 7 8 11 22 23 17 20 20 19 14 11 11 6 8 16 17 23 28 25 30 29 30 29 29 26 25 26 26 34 36 31 19 16 13 13
3 2 3 4 4 5 6 15 18 17 12 14 12 5 3 4 4 5 4 2 3 6 8 8 9 17 25 26 27 29 32 34 33 32 31 31 32 32 31 31 25 24 23 16 11
3 3 2 3 2 1 4 5 5 4 3 5 5 7 10 7 11 12 13 15 16 17 19 9 10 15 19 14 20 22 30 30 33 29 29 32 31 22 20 20 19 17 19 16 16
Wind_Direction
23 19 15 11 8 4 1 358 355 352 350 345 345 344 339 330 308 210 241 221 185 166 148 123 160 195 86 296 190 94 65 245 248 216 263 320 239 273 341 150 227 209 179 292 128
21 14 9 4 359 357 353 352 348 345 343 341 341 340 338 336 232 238 250 164 145 148 127 152 169 141 76 238 226 115 149 227 218 218 227 236 201 216 197 218 242 276 316 82 138
11 7 3 357 352 347 346 343 342 339 339 338 336 335 331 318 324 244 165 163 159 173 149 160 121 140 223 165 207 185 214 225 263 251 198 232 235 200 194 250 216 211 211 163 168
0 357 352 347 342 338 336 333 331 332 331 332 332 331 324 200 283 211 164 168 167 174 139 163 159 171 210 212 204 208 239 224 263 258 273 237 246 239 197 241 208 226 173 165 186
337 346 342 339 334 331 327 324 322 322 322 323 328 331 340 306 249 150 148 163 152 155 182 176 170 177 203 207 244 220 247 241 248 275 260 297 248 241 257 247 243 236 179 190 199
328 321 324 332 330 323 320 318 315 314 314 312 316 326 174 243 199 156 152 149 199 181 194 169 201 204 227 225 186 256 262 267 271 254 247 216 268 143 268 205 239 241 223 207 206
303 302 309 311 316 317 314 310 306 304 303 303 292 181 211 238 319 164 159 188 184 180 205 228 177 159 172 281 286 305 303 304 238 233 235 157 285 222 248 165 257 251 240 220 221
294 299 301 304 307 309 308 306 303 297 293 282 212 163 240 335 124 141 175 334 91 129 97 31 105 184 186 287 352 307 335 310 152 135 245 148 262 243 249 218 257 255 253 236 238
290 297 298 302 306 309 310 306 302 294 273 162 137 160 258 106 185 214 150 176 105 62 63 88 101 180 1 119 349 300 242 223 303 205 149 182 248 265 252 207 256 264 254 251 254
286 291 296 302 308 311 316 310 289 12 101 195 268 44 264 229 187 148 162 147 132 106 68 111 59 139 360 129 224 218 217 250 246 233 183 231 254 272 266 217 238 263 269 254 253
277 285 292 301 312 318 336 358 11 359 349 192 203 216 216 157 130 186 165 132 114 111 178 207 127 205 228 209 218 197 218 230 254 264 217 233 244 252 269 254 252 253 257 253 245
280 288 298 307 317 320 358 67 183 210 305 258 247 277 262 172 204 216 127 153 154 193 149 157 210 222 242 194 224 242 256 260 267 265 202 253 257 258 260 265 256 254 257 251 253
268 274 289 303 317 349 8 143 243 157 245 288 223 209 238 164 232 218 150 154 168 170 203 221 221 218 221 226 229 230 235 250 251 300 240 283 268 251 249 256 264 254 244 255 250
263 264 270 301 359 336 299 265 119 142 11 273 259 271 58 150 240 35 207 165 209 220 208 244 233 214 198 221 210 260 227 254 260 280 270 93 291 212 234 245 247 253 259 248 252
266 251 231 185 287 320 216 204 140 84 309 260 227 328 23 154 130 14 0 37 219 193 154 240 192 194 216 232 188 259 235 246 235 233 326 204 257 171 202 241 248 254 240 257 260
272 274 194 147 238 235 172 169 118 35 252 295 229 48 83 19 354 72 91 30 190 244 231 242 241 192 218 187 190 128 62 24 49 39 267 212 209 66 167 205 247 250 255 252 262
315 253 166 155 232 152 175 344 319 222 327 248 245 171 181 203 221 189 156 169 204 255 240 305 218 212 166 228 142 139 110 297 315 54 253 195 222 259 253 220 212 237 247 247 252
335 253 209 206 189 180 65 75 238 189 227 12 133 127 196 158 239 176 134 194 255 247 319 271 291 171 177 197 197 208 198 183 206 261 271 143 250 268 225 237 228 236 260 294 283
322 222 188 194 184 122 124 212 230 179 211 213 309 209 225 218 182 171 218 233 218 185 200 206 265 123 191 169 152 168 192 231 298 70 37 257 275 284 230 280 292 293 295 266 255
311 234 206 171 156 146 212 241 241 231 339 348 239 203 210 197 285 142 315 226 246 196 233 298 283 203 94 37 34 174 177 70 207 194 258 273 239 261 289 275 287 308 307 300 290
242 245 247 134 148 219 223 227 253 223 251 248 239 254 243 272 231 232 211 258 258 105 162 64 37 278 10 194 242 247 234 220 219 206 244 257 271 227 197 173 288 295 328 310 305
259 234 169 152 192 207 236 233 217 207 223 249 272 252 258 272 265 244 242 233 200 156 199 207 169 223 256 267 244 222 260 242 244 250 233 255 252 281 277 283 276 284 296 288 262
252 246 191 243 221 225 218 236 242 218 213 220 249 234 248 262 264 244 258 258 250 223 211 181 212 265 275 284 250 226 236 239 256 264 248 252 252 253 276 275 274 261 256 274 269
293 263 191 205 244 254 247 247 242 213 245 232 254 254 271 269 254 265 271 270 210 228 238 218 245 242 253 253 265 241 204 215 242 255 260 252 262 268 269 272 272 270 278 269 265
224 252 319 216 231 245 242 275 261 264 236 252 246 241 247 262 267 265 277 307 315 283 247 210 245 242 247 259 262 262 260 260 252 236 239 249 255 254 261 267 271 282 270 280 285
282 311 346 301 302 272 236 236 255 269 257 254 254 337 355 282 316 311 11 358 256 328 329 327 297 287 272 254 246 247 253 256 257 253 256 260 259 259 261 267 282 280 286 294 292
285 302 291 265 317 1 249 244 261 33 248 266 16 335 294 310 334 298 285 266 253 265 280 259 275 282 279 298 302 277 248 253 257 265 264 263 267 320 315 312 326 17 35 9 359